When you browse on this site, cookies collect data to enhance your experience and personalize the content and advertising you see.
Visit our Privacy Policy to learn more. By continuing to use the site, you agree to this use of cookies and data.
  • In Österreich
  • Länderverzeichnis
  • Für 7 Tage
  • Wassertemperatur
  • Satellitenkarten
  • Wetterkarte
  • News
  • Widgets
  • user-avatar
    Anmelden

    Stündliche Wetter Mingora

    Heute, 11 Dezember, Dienstag

    Zeit Temperatur Niederschläge Wind Luftdruck Luftfeuchtigkeit
    00:00 +4°C° 0 mm 3 m/S 676 mmHg 60%
    01:00 +4°C° 0 mm 3 m/S 676 mmHg 58%
    02:00 +4°C° 0 mm 3 m/S 676 mmHg 56%
    03:00 +3°C° 0 mm 3 m/S 676 mmHg 55%
    04:00 +3°C° 0 mm 3 m/S 676 mmHg 54%
    05:00 +6°C° 0 mm 2 m/S 675 mmHg 46%
    06:00 +6°C° 0 mm 2 m/S 676 mmHg 44%
    07:00 +6°C° 0 mm 2 m/S 676 mmHg 43%
    08:00 +6°C° 0 mm 2 m/S 677 mmHg 41%
    09:00 +8°C° 0 mm 2 m/S 677 mmHg 37%
    10:00 +11°C° 0 mm 1 m/S 677 mmHg 33%
    11:00 +12°C° 0 mm 1 m/S 677 mmHg 29%
    12:00 +13°C° 0 mm 1 m/S 677 mmHg 30%
    13:00 +13°C° 0 mm 1 m/S 677 mmHg 30%
    14:00 +13°C° 0 mm 1 m/S 676 mmHg 31%
    15:00 +12°C° 0 mm 1 m/S 676 mmHg 35%
    16:00 +11°C° 0 mm 1 m/S 676 mmHg 38%
    17:00 +10°C° 0 mm 1 m/S 676 mmHg 42%
    18:00 +9°C° 0 mm 1 m/S 676 mmHg 41%
    19:00 +8°C° 0 mm 2 m/S 677 mmHg 41%
    20:00 +7°C° 0 mm 2 m/S 677 mmHg 41%
    21:00 +7°C° 0 mm 2 m/S 677 mmHg 39%
    22:00 +6°C° 0 mm 2 m/S 677 mmHg 38%
    23:00 +5°C° 0 mm 3 m/S 677 mmHg 36%

    Morgen, 12 Dezember, Mittwoch

    Zeit Temperatur Niederschläge Wind Luftdruck Luftfeuchtigkeit
    00:00 +5°C° 0 mm 3 m/S 677 mmHg 35%
    01:00 +4°C° 0 mm 3 m/S 677 mmHg 34%
    02:00 +4°C° 0 mm 3 m/S 677 mmHg 33%
    03:00 +4°C° 0 mm 3 m/S 677 mmHg 33%
    04:00 +4°C° 0 mm 3 m/S 677 mmHg 32%
    05:00 +3°C° 0 mm 3 m/S 677 mmHg 32%
    06:00 +4°C° 0 mm 3 m/S 677 mmHg 31%
    07:00 +4°C° 0 mm 3 m/S 678 mmHg 30%
    08:00 +4°C° 0 mm 3 m/S 678 mmHg 29%
    09:00 +7°C° 0 mm 2 m/S 678 mmHg 26%
    10:00 +9°C° 0 mm 2 m/S 679 mmHg 23%
    11:00 +13°C° 0 mm 1 m/S 679 mmHg 20%
    12:00 +13°C° 0 mm 1 m/S 679 mmHg 20%
    13:00 +13°C° 0 mm 1 m/S 679 mmHg 21%
    14:00 +14°C° 0 mm 1 m/S 678 mmHg 21%
    15:00 +12°C° 0 mm 1 m/S 678 mmHg 24%
    16:00 +11°C° 0 mm 1 m/S 678 mmHg 28%
    17:00 +9°C° 0 mm 1 m/S 678 mmHg 31%
    18:00 +8°C° 0 mm 2 m/S 678 mmHg 31%
    19:00 +7°C° 0 mm 2 m/S 679 mmHg 31%
    20:00 +5°C° 0 mm 3 m/S 679 mmHg 31%
    21:00 +5°C° 0 mm 3 m/S 679 mmHg 30%
    22:00 +4°C° 0 mm 3 m/S 680 mmHg 29%
    23:00 +4°C° 0 mm 3 m/S 680 mmHg 28%

    übermorgen, 13 Dezember, Donnerstag

    Zeit Temperatur Niederschläge Wind Luftdruck Luftfeuchtigkeit
    00:00 +4°C° 0 mm 3 m/S 680 mmHg 27%
    01:00 +4°C° 0 mm 3 m/S 679 mmHg 27%
    02:00 +3°C° 0 mm 3 m/S 679 mmHg 26%
    03:00 +3°C° 0 mm 3 m/S 679 mmHg 26%
    04:00 +3°C° 0 mm 3 m/S 679 mmHg 25%
    05:00 +3°C° 0 mm 3 m/S 679 mmHg 25%
    06:00 +3°C° 0 mm 3 m/S 679 mmHg 24%
    07:00 +3°C° 0 mm 3 m/S 680 mmHg 24%
    08:00 +4°C° 0 mm 3 m/S 680 mmHg 23%
    09:00 +7°C° 0 mm 3 m/S 680 mmHg 21%
    10:00 +9°C° 0 mm 2 m/S 680 mmHg 18%
    11:00 +13°C° 0 mm 1 m/S 680 mmHg 16%
    12:00 +13°C° 0 mm 1 m/S 680 mmHg 16%
    13:00 +14°C° 0 mm 1 m/S 680 mmHg 16%
    14:00 +14°C° 0 mm 2 m/S 679 mmHg 16%
    15:00 +13°C° 0 mm 1 m/S 679 mmHg 19%
    16:00 +11°C° 0 mm 1 m/S 679 mmHg 22%
    17:00 +9°C° 0 mm 1 m/S 678 mmHg 26%
    18:00 +8°C° 0 mm 2 m/S 679 mmHg 26%
    19:00 +7°C° 0 mm 2 m/S 680 mmHg 25%
    20:00 +5°C° 0 mm 3 m/S 680 mmHg 25%
    21:00 +5°C° 0 mm 3 m/S 680 mmHg 25%
    22:00 +4°C° 0 mm 3 m/S 680 mmHg 25%
    23:00 +4°C° 0 mm 3 m/S 680 mmHg 24%

    14 Dezember, Freitag

    Zeit Temperatur Niederschläge Wind Luftdruck Luftfeuchtigkeit
    00:00 +4°C° 0 mm 3 m/S 680 mmHg 24%
    01:00 +4°C° 0 mm 3 m/S 680 mmHg 23%
    02:00 +3°C° 0 mm 3 m/S 680 mmHg 22%
    03:00 +3°C° 0 mm 3 m/S 680 mmHg 22%
    04:00 +3°C° 0 mm 4 m/S 680 mmHg 21%
    05:00 +3°C° 0 mm 4 m/S 680 mmHg 20%
    06:00 +3°C° 0 mm 4 m/S 680 mmHg 19%
    07:00 +3°C° 0 mm 4 m/S 681 mmHg 19%
    08:00 +4°C° 0 mm 4 m/S 681 mmHg 18%
    09:00 +7°C° 0 mm 3 m/S 681 mmHg 16%
    10:00 +10°C° 0 mm 2 m/S 681 mmHg 14%
    11:00 +14°C° 0 mm 1 m/S 681 mmHg 12%
    12:00 +14°C° 0 mm 1 m/S 681 mmHg 12%
    13:00 +15°C° 0 mm 2 m/S 680 mmHg 12%
    14:00 +15°C° 0 mm 2 m/S 680 mmHg 12%
    15:00 +14°C° 0 mm 1 m/S 680 mmHg 15%
    16:00 +12°C° 0 mm 1 m/S 680 mmHg 18%
    17:00 +10°C° 0 mm 1 m/S 680 mmHg 21%
    18:00 +8°C° 0 mm 2 m/S 680 mmHg 20%
    19:00 +7°C° 0 mm 3 m/S 681 mmHg 20%
    20:00 +7°C° 0 mm 3 m/S 681 mmHg 19%
    21:00 +5°C° 0 mm 3 m/S 681 mmHg 18%
    22:00 +5°C° 0 mm 3 m/S 681 mmHg 17%
    23:00 +5°C° 0 mm 4 m/S 681 mmHg 17%

    15 Dezember, Samstag

    Zeit Temperatur Niederschläge Wind Luftdruck Luftfeuchtigkeit
    00:00 +5°C° 0 mm 4 m/S 681 mmHg 16%
    01:00 +4°C° 0 mm 4 m/S 681 mmHg 15%
    02:00 +4°C° 0 mm 4 m/S 680 mmHg 15%
    03:00 +4°C° 0 mm 4 m/S 680 mmHg 14%
    04:00 +4°C° 0 mm 4 m/S 680 mmHg 14%
    05:00 +4°C° 0 mm 4 m/S 680 mmHg 14%
    06:00 +4°C° 0 mm 4 m/S 680 mmHg 14%
    07:00 +5°C° 0 mm 4 m/S 680 mmHg 14%
    08:00 +5°C° 0 mm 4 m/S 681 mmHg 14%
    09:00 +9°C° 0 mm 3 m/S 681 mmHg 13%
    10:00 +13°C° 0 mm 2 m/S 681 mmHg 12%
    11:00 +16°C° 0 mm 1 m/S 681 mmHg 10%
    12:00 +16°C° 0 mm 1 m/S 681 mmHg 10%
    13:00 +18°C° 0 mm 1 m/S 680 mmHg 10%
    14:00 +17°C° 0 mm 2 m/S 680 mmHg 10%
    15:00 +15°C° 0 mm 1 m/S 680 mmHg 14%
    16:00 +13°C° 0 mm 1 m/S 680 mmHg 17%
    17:00 +11°C° 0 mm 1 m/S 680 mmHg 21%
    18:00 +9°C° 0 mm 2 m/S 680 mmHg 20%
    19:00 +9°C° 0 mm 2 m/S 681 mmHg 20%
    20:00 +8°C° 0 mm 3 m/S 682 mmHg 19%
    21:00 +8°C° 0 mm 3 m/S 681 mmHg 19%
    22:00 +8°C° 0 mm 3 m/S 681 mmHg 18%
    23:00 +6°C° 0 mm 4 m/S 681 mmHg 17%

    16 Dezember, Sonntag

    Zeit Temperatur Niederschläge Wind Luftdruck Luftfeuchtigkeit
    00:00 +6°C° 0 mm 4 m/S 681 mmHg 16%
    01:00 +6°C° 0 mm 4 m/S 681 mmHg 16%
    02:00 +6°C° 0 mm 4 m/S 681 mmHg 15%
    03:00 +5°C° 0 mm 4 m/S 681 mmHg 15%
    04:00 +5°C° 0 mm 4 m/S 681 mmHg 14%
    05:00 +5°C° 0 mm 4 m/S 680 mmHg 14%
    06:00 +5°C° 0 mm 4 m/S 681 mmHg 14%
    07:00 +6°C° 0 mm 4 m/S 681 mmHg 14%
    08:00 +6°C° 0 mm 4 m/S 681 mmHg 14%
    09:00 +10°C° 0 mm 3 m/S 682 mmHg 13%
    10:00 +14°C° 0 mm 2 m/S 682 mmHg 11%
    11:00 +17°C° 0 mm 2 m/S 682 mmHg 10%
    12:00 +18°C° 0 mm 2 m/S 681 mmHg 10%
    13:00 +19°C° 0 mm 1 m/S 681 mmHg 9%
    14:00 +20°C° 0 mm 1 m/S 680 mmHg 9%
    15:00 +18°C° 0 mm 1 m/S 680 mmHg 12%
    16:00 +15°C° 0 mm 1 m/S 679 mmHg 15%
    17:00 +12°C° 0 mm 1 m/S 679 mmHg 18%
    18:00 +12°C° 0 mm 2 m/S 679 mmHg 18%
    19:00 +10°C° 0 mm 3 m/S 680 mmHg 17%
    20:00 +8°C° 0 mm 4 m/S 680 mmHg 17%
    21:00 +8°C° 0 mm 4 m/S 680 mmHg 16%
    22:00 +7°C° 0 mm 4 m/S 680 mmHg 16%
    23:00 +7°C° 0 mm 4 m/S 680 mmHg 15%
    Mehr zeigen